Location: Lafig�re
(44.4503°N, 4.0357°E)
Time: 06:46:53
(UTC+00:00)

Cosmos 1125 Rocket - Pass Details

Date: 26 January 2021
Orbit: 756 x 781 km, 74.0° (Epoch: 04 March)

Event Time Altitude Azimuth Distance (km) Brightness Sun altitude
Rises 20:15:13 0° 220° (SW) 3,211 7.0 -37.4°
Reaches altitude 10° 20:17:41 10° 227° (SW) 2,292 6.3 -37.8°
Enters shadow 20:18:14 13° 230° (SW) 2,098 6.1 -37.9°
